Torna al catalogo

STARLINK-32191

AttivoComunicazioniVLEO
NORAD 60314·PAYLOAD·🇺🇸 United States

Lanciato Jul 28, 2024 da Vandenberg Space Force Base

Loading…

Prossimi Passaggi (prossime 24 ore)

TLE

AggiornatoSource: CelesTrak SupGP

Epoca: Sep 14, 2026, 20:48 UTC

1 60314C 24133P   26257.86715278  .00019430  00000+0  57400-3 0  2575
2 60314  53.1567 136.3904 0001222  87.4192 209.7502 15.34385296    19

Traccia STARLINK-32191 in tempo reale con AllMySat

Download on the App Store